Change the Weather History Date:

Saturday, December 15, 2012

  Actual Average Record
Temperature  
Mean Temperature 18 °F -  
Max Temperature 21 °F 31 °F 48 °F (2005)
Min Temperature 14 °F 19 °F -11 °F (1946)
Degree Days  
Heating Degree Days 48    
Moisture  
Dew Point 8 °F    
Average Humidity 68    
Maximum Humidity 88    
Minimum Humidity 45    
Precipitation  
Precipitation 0.00 in - - ()
Sea Level Pressure  
Sea Level Pressure 29.17 in    
Wind  
Wind Speed 4 mph (NE)    
Max Wind Speed 14 mph    
Max Gust Speed 22 mph    
Visibility 10 miles    
Events      
Averages and records for this station are not official NWS values.
T = Trace of Precipitation, MM = Missing Value Source: NWS Daily Summary

Daily Weather History Graph

Daily Weather History Graph

Search for Another Location

Airport or City:

Trip Planner

Search our weather history database for the weather conditions in past years. The results will help you decide how hot, cold, wet, or windy it might be!

Date:

Astronomy

Dec. 15, 2012 Rise Set
Actual Time 10:00 AM AKST 4:02 PM AKST
Civil Twilight 9:04 AM AKST 4:58 PM AKST
Nautical Twilight 8:08 AM AKST 5:54 PM AKST
Astronomical Twilight 7:17 AM AKST 6:45 PM AKST
Moon 11:24 AM AKST (12/15) 7:59 PM AKST (12/15)
Length of Visible Light 7h 54m
Length of Day
6h 01m
Waxing Crescent, 9% of the Moon is Illuminated
Dec 15
Waxing Crescent
Dec 19
First Quarter
Dec 28
Full
Jan 4
Last Quarter
Jan 11
New

Hourly Weather History & Observations

Time (AKST) Temp. Windchill Dew Point Humidity Pressure Visibility Wind Dir Wind Speed Gust Speed Precip Events Conditions
12:53 AM 17.1 °F 8.7 °F 12.9 °F 84% 29.16 in 10.0 mi NE 5.8 mph - N/A   Clear
1:53 AM 19.0 °F 11.1 °F 14.0 °F 81% 29.17 in 10.0 mi NNE 5.8 mph - N/A   Clear
3:53 AM 19.0 °F - 12.9 °F 77% 29.17 in 10.0 mi Calm Calm - N/A   Clear
4:53 AM 16.0 °F - 12.0 °F 84% 29.16 in 10.0 mi Calm Calm - N/A   Clear
5:27 AM 15.8 °F - 12.2 °F 86% 29.15 in 10.0 mi Calm Calm - N/A   Mostly Cloudy
5:53 AM 16.0 °F - 12.0 °F 84% 29.16 in 10.0 mi Calm Calm - N/A   Overcast
6:48 AM 15.8 °F 10.2 °F 12.2 °F 86% 29.14 in 10.0 mi NNE 3.5 mph - N/A   Scattered Clouds
6:53 AM 15.1 °F - 12.0 °F 88% 29.15 in 10.0 mi Calm Calm - N/A   Scattered Clouds
7:53 AM 15.1 °F - 10.9 °F 84% 29.13 in 10.0 mi Calm Calm - N/A   Scattered Clouds
8:53 AM 15.1 °F 9.4 °F 10.9 °F 84% 29.13 in 10.0 mi NNE 3.5 mph - N/A   Partly Cloudy
9:53 AM 18.0 °F 8.7 °F 12.9 °F 81% 29.12 in 10.0 mi ENE 6.9 mph - N/A   Scattered Clouds
10:53 AM 21.0 °F 12.4 °F 16.0 °F 81% 29.12 in 10.0 mi ENE 6.9 mph - N/A   Mostly Cloudy
11:53 AM 21.9 °F 15.7 °F 16.0 °F 78% 29.13 in 10.0 mi Variable 4.6 mph - N/A   Overcast
12:53 PM 21.9 °F 9.2 °F 9.0 °F 58% 29.11 in 10.0 mi ENE 13.8 mph 21.9 mph N/A   Mostly Cloudy
1:53 PM 21.0 °F 10.6 °F 9.0 °F 60% 29.13 in 10.0 mi NE 9.2 mph - N/A   Overcast
2:53 PM 21.0 °F 13.4 °F 7.0 °F 55% 29.14 in 10.0 mi Variable 5.8 mph - N/A   Overcast
3:53 PM 19.9 °F 13.4 °F 3.0 °F 48% 29.15 in 9.0 mi NNE 4.6 mph - N/A   Overcast
4:53 PM 18.0 °F 8.7 °F 1.9 °F 50% 29.17 in 10.0 mi NNE 6.9 mph - N/A   Overcast
5:53 PM 17.1 °F - 3.0 °F 54% 29.19 in 10.0 mi Calm Calm - N/A   Mostly Cloudy
6:53 PM 16.0 °F - 1.9 °F 54% 29.21 in 10.0 mi Calm Calm - N/A   Overcast
7:53 PM 16.0 °F 10.4 °F -2.0 °F 45% 29.23 in 10.0 mi NE 3.5 mph - N/A   Overcast
8:53 PM 16.0 °F 7.4 °F -0.0 °F 49% 29.24 in 10.0 mi ENE 5.8 mph - N/A   Overcast
9:53 PM 16.0 °F 6.3 °F 1.9 °F 54% 29.27 in 10.0 mi East 6.9 mph - N/A   Partly Cloudy
10:53 PM 14.0 °F 6.5 °F 1.0 °F 56% 29.28 in 10.0 mi Variable 4.6 mph - N/A   Partly Cloudy
11:53 PM 15.1 °F - -0.9 °F 49% 29.31 in 10.0 mi Calm Calm - N/A   Clear